TimeCDT,TemperatureF,Dew PointF,Humidity,Sea Level PressureIn,VisibilityMPH,Wind Direction,Wind SpeedMPH,Gust SpeedMPH,PrecipitationIn,Events,Conditions,WindDirDegrees,DateUTC
12:56 AM,75.9,64.9,69,29.99,10.0,ENE,11.5,-,N/A,,Mostly Cloudy,70,2012-10-07 05:56:00
1:56 AM,70.0,59.9,70,30.00,10.0,NE,18.4,-,N/A,,Partly Cloudy,50,2012-10-07 06:56:00
2:24 AM,69.8,59.0,68,30.04,10.0,NE,17.3,-,N/A,,Mostly Cloudy,50,2012-10-07 07:24:00
2:49 AM,68.0,57.2,68,30.04,10.0,ENE,20.7,-,N/A,,Scattered Clouds,60,2012-10-07 07:49:00
2:56 AM,68.0,57.9,70,30.01,10.0,ENE,15.0,-,N/A,,Scattered Clouds,60,2012-10-07 07:56:00
3:56 AM,64.9,55.9,73,30.03,10.0,NE,17.3,-,N/A,,Partly Cloudy,50,2012-10-07 08:56:00
4:56 AM,63.0,54.9,75,30.03,10.0,NE,15.0,21.9,N/A,,Mostly Cloudy,40,2012-10-07 09:56:00
5:15 AM,62.6,53.6,72,30.07,10.0,NE,16.1,-,N/A,,Mostly Cloudy,50,2012-10-07 10:15:00
5:56 AM,63.0,54.0,72,30.05,10.0,NE,15.0,-,N/A,,Overcast,40,2012-10-07 10:56:00
6:56 AM,61.0,52.9,75,30.07,10.0,NE,19.6,26.5,N/A,,Overcast,50,2012-10-07 11:56:00
7:56 AM,61.0,50.9,69,30.10,10.0,NE,16.1,-,N/A,,Overcast,50,2012-10-07 12:56:00
8:56 AM,59.9,48.9,67,30.14,10.0,NE,18.4,-,N/A,,Overcast,40,2012-10-07 13:56:00
9:56 AM,59.9,48.9,67,30.16,10.0,NE,16.1,-,N/A,,Overcast,40,2012-10-07 14:56:00
10:56 AM,59.9,47.8,64,30.18,10.0,North,13.8,-,N/A,,Overcast,10,2012-10-07 15:56:00
11:56 AM,59.9,47.8,64,30.19,10.0,North,12.7,-,0.00,,Overcast,10,2012-10-07 16:56:00
12:56 PM,59.9,48.9,67,30.19,10.0,North,10.4,-,N/A,,Overcast,360,2012-10-07 17:56:00
1:56 PM,59.0,50.9,74,30.17,5.0,North,10.4,-,0.00,Rain,Light Rain,350,2012-10-07 18:56:00
2:56 PM,57.9,52.0,81,30.15,5.0,North,10.4,-,0.00,Rain,Light Rain,350,2012-10-07 19:56:00
3:42 PM,57.2,53.6,88,30.15,3.0,NNW,9.2,-,0.00,,Overcast,330,2012-10-07 20:42:00
3:56 PM,57.9,54.0,87,30.12,5.0,North,10.4,-,0.00,,Overcast,350,2012-10-07 20:56:00
4:56 PM,59.0,50.9,74,30.12,10.0,North,10.4,-,N/A,,Overcast,360,2012-10-07 21:56:00
5:56 PM,59.0,50.9,74,30.11,10.0,North,10.4,-,N/A,,Overcast,350,2012-10-07 22:56:00
6:56 PM,59.0,50.0,72,30.12,10.0,NNE,11.5,-,N/A,,Overcast,20,2012-10-07 23:56:00
7:56 PM,59.0,50.0,72,30.15,10.0,NNE,10.4,-,N/A,,Overcast,30,2012-10-08 00:56:00
8:56 PM,59.0,50.0,72,30.17,10.0,NNE,8.1,-,N/A,,Overcast,30,2012-10-08 01:56:00
9:56 PM,59.0,50.0,72,30.18,10.0,NNE,8.1,-,N/A,,Overcast,20,2012-10-08 02:56:00
10:56 PM,59.0,48.9,69,30.19,10.0,NNE,9.2,-,N/A,,Overcast,20,2012-10-08 03:56:00
11:56 PM,59.0,48.9,69,30.19,10.0,North,8.1,-,N/A,,Overcast,10,2012-10-08 04:56:00